GFSFLT1_925_thetae_000.txt.gz
Theta_e
319 323 321 330 332 331 331 326 326 326 323 322 319 316 314 313 313 313 312 311 311 311 311 310 311 311 310 308 307 306 305 306
319 320 322 326 327 326 327 327 325 318 315 316 314 313 313 312 311 311 311 311 311 310 309 309 308 308 306 305 305 305 304 304
315 315 315 315 315 314 315 315 315 315 315 314 313 312 312 312 312 312 311 309 307 307 306 305 305 305 305 304 303 304 305 305
315 314 314 314 313 314 313 313 313 312 312 312 311 311 312 312 311 310 309 307 305 304 303 302 302 302 302 302 302 302 304 305
315 314 315 314 313 313 313 313 312 312 312 311 311 311 311 308 306 307 307 304 303 302 301 301 301 301 301 301 301 301 301 303
313 315 315 315 314 314 313 313 312 312 311 311 311 310 306 306 307 305 304 302 301 300 300 300 301 300 300 299 300 301 300 301
314 316 316 315 314 314 313 313 313 311 311 310 310 307 306 306 303 302 301 301 300 300 300 300 299 299 298 297 297 297 296 296
313 314 315 315 314 314 313 313 313 312 311 309 308 306 304 302 302 303 302 300 300 299 300 299 299 298 297 297 296 294 293 293
312 313 312 312 312 312 312 311 310 310 306 304 303 303 303 304 304 303 301 300 300 299 299 298 297 294 293 292 292 292 291 290
310 310 310 310 310 309 309 309 307 305 304 304 306 306 305 305 303 302 300 300 299 296 295 295 295 294 292 291 290 289 289 289
308 309 309 308 306 306 306 307 307 306 306 306 304 303 302 301 301 301 300 299 297 295 294 294 293 291 290 289 289 289 289 290
307 307 306 305 305 305 304 304 305 303 302 304 304 305 303 301 300 299 297 296 295 294 294 293 291 290 289 289 289 289 289 289
307 306 305 303 303 300 298 298 297 296 296 299 303 304 303 300 299 297 297 295 293 293 291 290 290 289 289 289 289 288 288 286
305 304 303 301 298 297 297 296 295 295 294 294 294 295 296 300 298 295 293 292 292 293 290 289 289 289 289 288 288 286 286 285
304 303 302 298 298 297 296 295 294 294 294 293 294 296 297 298 294 294 293 292 292 292 289 288 288 289 288 287 286 286 285 284
304 302 300 297 297 295 295 294 294 293 293 293 294 295 296 296 297 296 294 293 292 289 288 288 289 289 288 286 285 285 285 284
303 301 297 296 295 294 294 293 293 293 292 293 294 294 294 295 295 294 293 293 289 288 289 288 289 288 287 286 286 285 284 284
301 298 296 295 294 294 294 293 293 293 293 294 293 293 294 293 294 294 294 291 291 290 289 289 288 287 286 285 285 284 284 282
299 296 295 295 294 294 293 293 293 293 293 293 293 293 292 293 293 292 291 292 291 289 288 288 286 285 285 285 284 283 282 281

GFSFLT1_925_thetae_003.txt.gz
Theta_e
316 320 326 326 329 330 328 330 328 326 322 318 315 314 313 312 311 311 311 310 310 309 309 309 309 308 306 305 304 304 303 303
315 319 323 326 326 329 327 325 317 318 314 314 314 313 311 311 311 310 309 308 307 307 306 305 305 304 303 302 302 302 302 302
314 314 317 319 316 318 318 318 314 315 315 314 314 312 311 311 309 309 308 307 306 306 305 303 302 301 301 301 301 301 301 301
314 312 313 314 315 314 313 312 312 312 314 312 311 311 311 310 307 306 305 304 304 302 301 300 300 301 300 300 300 301 301 302
312 311 311 312 311 312 312 312 312 312 311 311 310 310 310 307 305 304 303 302 300 300 299 299 299 299 299 297 298 299 300 298
311 312 313 313 313 312 312 312 312 311 311 310 310 309 306 305 303 301 301 300 299 299 300 299 299 298 298 297 297 297 296 295
312 313 313 311 310 310 309 310 310 310 310 309 308 307 304 303 302 304 304 302 302 301 300 299 298 298 297 297 296 294 292 292
313 311 310 310 311 311 311 312 312 310 309 307 306 304 302 302 304 304 302 302 302 300 299 298 297 296 295 292 291 291 290 289
307 308 309 308 309 309 309 308 307 306 305 304 303 304 304 304 304 303 302 301 301 299 298 296 294 294 293 291 289 289 289 289
306 307 307 306 306 306 306 306 305 305 305 305 304 303 303 302 301 300 300 300 299 298 296 295 293 293 291 290 289 289 289 289
305 305 304 304 304 304 305 305 303 300 300 300 301 302 301 301 301 300 299 299 297 297 296 294 293 291 290 290 289 289 288 288
304 303 303 302 300 300 299 298 296 295 294 294 294 293 293 293 294 298 299 297 296 295 294 292 292 290 289 289 289 288 288 289
303 303 301 299 296 296 295 295 294 294 293 292 292 292 291 292 295 296 295 294 292 292 292 292 290 289 288 288 288 288 288 287
302 301 299 297 296 295 295 294 294 293 293 292 292 291 291 291 293 295 293 292 293 294 293 290 288 288 288 288 288 287 286 285
302 300 297 296 295 295 294 294 293 293 293 292 292 291 291 292 293 293 293 294 295 292 291 289 288 288 288 288 287 286 285 285
302 299 296 295 295 294 294 293 293 293 293 292 292 292 291 291 292 293 293 292 291 291 291 288 288 288 288 287 286 285 285 284
302 298 295 295 294 294 294 293 293 293 292 292 292 292 291 291 292 292 293 293 292 288 290 289 288 288 287 286 285 285 284 283
300 296 294 295 294 294 293 293 293 292 292 292 292 292 291 291 291 292 293 291 290 290 289 287 287 286 285 285 284 284 283 282
298 295 294 294 294 293 293 293 292 292 292 292 292 291 291 291 292 292 292 292 291 290 287 286 285 284 283 283 282 281 280 279

GFSFLT1_925_thetae_006.txt.gz
Theta_e
316 322 323 323 327 330 330 327 326 324 323 321 311 312 312 313 312 311 310 310 309 307 306 306 305 305 304 302 301 300 300 300
316 317 322 325 326 328 327 327 323 317 314 314 313 313 312 311 310 308 307 306 305 305 304 303 302 301 300 299 298 298 298 300
313 313 317 321 323 324 319 317 316 315 315 315 316 314 311 309 306 305 304 303 303 302 301 300 299 299 298 297 296 296 298 300
311 310 311 313 313 314 313 313 312 312 311 311 311 310 310 308 305 303 302 302 301 300 299 300 300 298 298 297 297 296 298 298
309 309 310 310 310 310 311 311 311 311 310 310 310 310 309 306 304 301 302 302 301 302 302 301 300 298 298 297 297 296 297 296
309 310 310 310 310 311 310 310 310 310 310 309 309 308 305 304 302 303 303 303 302 301 301 301 299 298 297 296 296 296 294 293
310 310 310 310 310 310 310 311 310 309 308 307 307 306 304 303 303 303 303 302 302 301 300 299 298 296 295 294 292 291 290 289
310 308 308 308 309 309 309 308 305 304 304 303 303 303 303 302 302 302 302 301 301 300 299 297 295 293 293 292 290 290 289 288
307 306 306 307 306 306 305 303 302 303 303 302 302 302 301 301 301 301 301 300 300 299 298 296 294 296 292 291 289 289 288 288
304 305 305 305 305 304 304 304 301 299 298 297 297 298 296 293 293 293 293 296 299 298 297 295 295 293 292 291 290 289 288 288
303 302 302 302 303 304 303 298 296 296 295 295 294 293 292 290 290 290 292 296 297 297 296 294 292 292 291 290 289 289 288 288
301 301 300 300 300 299 298 297 296 295 294 293 293 292 291 291 290 290 293 297 296 295 294 294 293 291 290 289 288 288 288 288
301 301 298 296 296 296 296 295 295 294 293 293 292 292 292 291 291 291 293 295 295 295 293 292 293 291 289 288 288 288 288 287
300 300 297 295 295 296 295 295 294 294 293 293 292 292 292 291 291 291 292 292 292 291 293 293 289 289 288 288 288 288 287 285
300 298 296 295 296 296 295 294 294 293 293 292 292 292 292 291 291 291 292 292 292 292 291 291 289 288 288 288 287 286 285 285
300 297 295 295 296 295 294 294 293 293 292 292 292 292 292 291 291 291 292 292 292 293 292 289 288 287 287 287 286 285 284 284
301 298 296 295 295 294 294 294 293 292 292 292 292 292 291 291 291 291 291 293 290 289 288 289 287 287 286 286 285 284 284 283
300 298 297 295 295 295 294 293 292 292 292 292 292 292 291 291 290 291 292 292 291 291 290 287 287 286 285 283 282 281 281 279
299 299 297 295 294 294 293 292 292 291 292 292 292 291 291 290 290 291 291 292 291 291 289 286 285 284 282 281 280 279 278 277

GFSFLT1_925_thetae_009.txt.gz
Theta_e
319 321 323 325 327 327 327 327 324 323 324 324 316 312 311 312 311 309 308 307 306 305 305 304 303 302 301 300 300 301 301 300
318 320 324 327 327 328 327 325 324 325 323 313 312 312 312 310 309 308 307 305 304 303 302 300 299 300 300 299 298 298 299 300
317 320 323 325 326 325 325 323 320 317 315 314 314 314 310 308 306 305 304 303 302 300 301 302 302 300 299 298 297 299 299 300
316 317 318 319 317 316 317 315 314 313 313 312 311 310 309 307 304 303 302 303 303 302 301 301 301 300 299 298 299 299 299 298
311 310 310 310 311 311 311 311 310 309 309 309 309 309 309 305 302 303 303 302 302 301 301 300 300 299 298 298 297 296 296 295
311 310 309 308 308 308 308 308 308 308 308 308 308 307 305 303 303 303 302 302 302 301 300 300 299 297 296 295 294 293 293 292
311 310 309 308 308 308 309 308 306 305 305 303 303 303 302 302 302 302 302 302 302 301 300 299 298 296 294 292 291 290 291 290
312 311 309 307 307 306 304 304 303 303 303 303 302 302 301 301 301 300 300 299 298 299 299 298 296 293 294 293 292 289 290 290
312 308 306 305 304 303 303 303 302 301 300 298 297 296 295 293 292 291 292 293 294 294 298 296 294 295 292 292 292 291 291 290
310 307 305 304 303 303 303 300 297 296 296 295 294 293 292 291 291 290 290 290 294 296 297 295 296 294 293 293 292 292 291 290
307 304 304 304 303 300 297 297 296 295 295 294 293 293 292 292 291 291 290 290 295 297 296 295 295 295 293 292 291 291 289 290
305 303 301 302 299 297 296 296 296 296 294 294 294 293 293 292 291 291 290 291 294 296 296 295 295 293 292 290 289 288 288 289
303 301 299 298 297 296 298 297 296 295 294 293 293 293 292 292 291 291 290 291 292 293 293 293 292 292 292 289 288 288 288 289
303 300 298 297 296 296 296 298 297 294 293 293 293 292 292 292 291 291 291 291 291 291 292 292 291 291 289 288 288 288 287 286
304 301 298 297 296 297 300 299 294 293 293 293 292 292 292 291 291 291 291 291 292 293 291 292 291 290 287 287 287 286 286 285
303 301 298 297 296 297 300 295 294 293 293 292 292 292 292 291 291 291 290 291 293 291 290 287 287 287 287 287 286 286 285 285
303 301 298 296 296 298 297 295 293 293 292 292 292 292 292 291 291 290 290 292 292 291 290 290 288 286 286 286 285 284 283 282
303 302 300 298 297 297 295 294 293 292 292 292 291 292 292 291 291 290 291 291 291 291 290 288 288 287 284 283 282 281 280 280
303 301 300 298 296 295 293 293 292 292 291 292 292 291 291 291 291 290 291 290 290 290 289 288 286 283 282 281 280 280 279 279

GFSFLT1_925_thetae_012.txt.gz
Theta_e
326 328 329 330 330 331 332 330 329 327 324 323 322 316 315 314 313 311 310 310 309 309 309 308 307 306 306 306 305 305 304 304
327 329 329 330 330 330 331 329 328 326 324 321 317 317 317 313 311 309 309 308 307 307 306 306 306 306 306 305 304 304 303 303
328 329 330 331 331 330 329 328 327 325 322 319 319 319 316 311 309 308 307 306 306 305 306 305 305 304 304 304 303 302 301 302
330 329 329 328 327 326 324 322 320 319 318 317 316 315 312 311 309 307 306 306 305 305 305 304 304 303 302 302 302 302 301 300
324 323 323 320 319 319 318 317 316 314 313 314 314 314 314 310 307 307 306 306 305 305 304 303 302 301 301 301 300 300 298 298
320 318 317 315 315 314 313 312 311 312 312 312 312 310 308 307 307 306 306 306 305 304 303 302 301 301 301 301 299 297 297 297
316 314 313 313 313 313 312 311 310 310 309 309 308 307 306 306 305 303 301 299 298 297 297 300 301 301 300 298 297 297 296 294
317 315 314 313 313 311 310 309 308 308 307 306 305 303 301 299 298 296 296 295 295 295 296 297 299 299 298 298 296 296 294 293
317 315 314 313 311 310 309 308 307 305 302 300 299 297 297 296 296 295 295 294 294 295 297 298 299 299 297 296 296 295 293 292
317 314 312 311 310 310 307 305 302 301 300 298 297 297 296 296 296 295 294 294 294 295 298 299 298 298 297 296 295 294 292 291
316 313 311 310 309 306 304 302 301 299 298 298 297 297 297 296 296 295 294 294 294 295 297 298 298 297 296 295 293 292 291 290
315 312 310 309 306 304 302 301 300 297 298 297 297 297 297 296 295 294 293 293 293 294 295 296 297 296 294 293 293 291 290 290
314 310 309 307 304 302 301 300 300 299 297 297 297 297 296 296 295 294 293 293 293 293 294 294 295 294 293 293 293 290 290 290
312 309 307 305 303 301 300 300 298 298 296 297 296 296 296 296 295 294 293 293 293 294 294 294 293 293 293 292 290 290 290 290
311 308 306 304 302 301 301 300 300 297 296 296 296 296 296 295 295 294 293 293 293 294 293 293 293 292 292 290 290 290 289 289
311 309 306 304 302 302 302 301 299 297 296 296 296 295 295 295 294 293 293 293 293 294 292 291 291 290 289 289 289 289 289 287
311 309 307 304 302 302 301 300 298 297 296 296 295 295 294 294 294 293 292 292 293 293 293 292 292 290 287 287 286 287 286 285
311 310 307 304 302 301 301 299 297 296 295 295 294 294 294 293 293 293 292 292 293 292 293 292 291 290 285 284 284 285 285 284
311 309 306 303 301 300 300 297 295 295 294 294 293 293 292 292 293 293 293 292 292 292 291 291 290 287 283 283 282 284 283 282

GFSFLT1_925_thetae_015.txt.gz
Theta_e
330 330 329 328 330 333 334 333 332 328 327 326 326 324 321 319 318 315 314 313 312 312 312 311 310 310 309 309 309 308 306 305
330 331 332 332 332 333 332 331 330 329 329 327 323 320 319 318 315 313 312 311 310 310 310 310 309 309 308 307 307 306 303 302
331 332 333 333 333 333 331 331 330 329 326 322 320 320 319 315 313 312 310 310 309 309 309 309 308 307 306 305 304 304 302 302
332 333 333 333 332 332 331 329 327 324 321 321 321 319 315 314 313 311 310 309 309 308 307 307 306 305 303 302 302 303 302 301
332 332 332 330 329 327 325 323 321 321 318 317 317 317 316 314 312 311 310 309 308 307 305 304 304 303 302 301 301 301 300 300
329 326 325 323 322 321 320 318 315 316 316 316 315 314 312 310 310 309 307 305 301 300 299 299 300 301 302 302 301 300 299 299
323 321 319 319 318 317 316 315 315 314 314 313 312 310 308 307 303 301 300 298 298 297 297 298 298 300 301 301 300 299 300 298
320 319 318 317 317 317 315 314 313 312 310 308 306 303 301 300 299 298 298 297 297 297 297 298 299 299 300 299 299 299 298 296
319 318 318 317 317 315 314 313 312 309 305 303 301 299 299 299 298 298 297 297 296 296 296 298 299 299 300 298 298 298 297 295
320 318 318 317 316 314 314 312 308 305 303 301 300 299 299 299 298 298 296 296 295 295 296 297 298 299 299 298 298 297 296 294
320 319 317 316 314 314 311 308 306 305 302 300 299 299 299 299 298 297 296 296 295 295 295 296 297 299 298 298 296 295 294 293
321 318 316 315 314 311 308 306 306 303 301 300 300 300 299 298 298 297 296 295 295 295 295 295 295 296 296 296 295 295 295 293
321 318 316 314 312 309 307 306 304 302 301 300 300 300 299 298 298 297 296 295 295 294 295 295 295 294 294 294 294 294 293 292
321 318 315 314 311 308 306 305 304 302 300 300 300 299 299 298 297 297 296 295 294 294 295 295 294 294 294 294 294 292 292 292
322 319 315 313 310 308 306 305 304 302 300 299 299 299 298 298 297 296 296 294 294 294 295 294 293 293 292 292 291 291 291 291
321 318 314 312 310 307 305 305 304 301 300 299 299 298 298 297 296 296 295 294 294 294 294 294 294 292 291 290 290 291 290 290
319 316 313 311 309 306 306 305 303 301 300 299 298 298 297 296 295 295 295 294 294 294 294 294 294 293 291 289 287 288 288 288
317 315 313 311 309 306 306 304 302 300 299 298 297 297 296 295 294 294 294 294 294 294 293 293 294 293 291 287 285 285 287 287
316 315 313 312 309 305 304 303 301 299 298 297 297 295 294 293 293 294 294 294 294 293 293 293 292 291 289 286 284 285 286 286

GFSFLT1_925_thetae_018.txt.gz
Theta_e
329 328 327 327 334 335 333 331 332 329 327 324 327 326 323 320 319 316 315 313 313 313 312 311 311 310 309 308 308 308 307 304
330 330 330 329 334 335 333 333 330 329 328 328 327 323 320 318 315 314 313 311 310 310 311 310 309 309 308 306 305 304 305 304
331 332 333 332 334 335 333 331 329 329 329 326 322 321 320 316 314 312 311 311 310 309 309 308 308 307 306 304 302 303 304 303
332 333 334 334 334 333 331 330 329 330 326 322 322 319 316 314 314 312 311 310 309 309 308 306 305 305 304 303 302 303 303 301
332 333 334 333 331 331 331 331 329 323 321 321 320 317 315 314 312 311 311 310 307 303 301 299 299 300 302 303 302 302 301 301
332 333 333 333 332 331 327 323 322 320 318 318 317 315 313 311 309 306 303 301 299 299 298 298 298 298 299 301 302 302 300 300
331 330 328 326 325 322 320 317 317 317 316 315 313 310 308 304 301 300 300 299 298 298 298 297 298 299 299 301 301 300 300 299
328 325 323 323 321 318 317 316 316 315 313 310 306 304 302 301 300 299 299 298 298 297 297 297 298 299 300 300 300 298 299 298
324 322 320 319 319 318 316 315 314 312 308 304 302 302 301 299 299 299 298 297 297 296 296 296 297 299 300 300 298 299 298 297
322 320 319 319 318 317 316 314 312 308 305 303 302 300 300 299 299 299 297 297 296 296 296 296 296 297 298 299 299 297 297 296
321 319 319 319 318 316 315 314 309 306 304 302 301 300 299 299 299 298 297 297 296 296 295 295 295 296 298 299 298 297 296 295
321 320 319 319 317 316 315 312 307 306 303 302 301 300 300 299 299 298 297 297 296 295 295 295 295 295 295 295 295 295 294 294
321 320 319 317 316 316 313 310 307 305 303 301 301 300 300 299 299 298 297 297 296 295 295 295 295 295 295 294 294 295 294 294
322 321 319 317 316 314 311 309 308 305 303 302 301 301 300 299 299 298 297 297 296 295 295 295 295 293 293 293 293 294 293 292
323 321 319 317 316 313 310 308 307 305 303 302 301 300 299 299 298 298 297 296 295 295 294 294 294 294 293 292 292 291 291 291
323 323 320 317 316 313 310 308 306 305 304 301 300 300 299 299 298 297 296 296 295 295 294 294 294 294 293 291 290 290 290 289
321 322 320 317 315 313 310 307 306 306 303 300 300 299 299 298 297 296 296 295 295 295 294 294 294 294 293 292 290 288 287 288
319 320 319 317 315 313 310 307 307 305 301 300 299 298 297 296 295 295 294 294 294 295 294 294 293 294 293 291 288 287 286 287
318 318 317 316 314 312 309 307 306 303 301 299 298 297 295 294 294 294 294 294 294 294 294 293 293 292 291 290 287 286 287 287

GFSFLT1_925_thetae_021.txt.gz
Theta_e
326 327 329 331 331 330 329 328 331 330 328 322 325 324 322 318 316 315 314 313 313 312 311 310 309 309 308 307 305 304 303 304
327 327 330 332 331 330 329 330 330 329 325 324 327 323 320 316 315 313 311 310 310 310 310 309 309 308 307 305 303 302 302 303
329 330 332 334 332 330 331 331 330 328 323 326 326 321 318 316 314 312 311 310 309 309 308 308 307 305 305 304 303 302 302 302
329 331 332 334 333 331 331 331 330 328 328 328 323 320 315 314 312 311 310 309 309 307 305 302 301 301 301 302 302 302 301 301
330 331 332 334 332 332 331 330 328 329 329 321 320 315 314 313 312 311 308 306 305 302 300 298 298 298 297 298 301 301 301 300
329 331 333 333 332 330 328 328 328 329 322 321 319 314 312 311 308 306 305 303 300 298 298 298 297 297 299 299 301 301 300 300
328 332 332 331 331 331 330 325 319 318 320 317 315 311 308 308 307 303 301 299 298 298 297 297 296 298 299 300 300 299 299 298
327 325 324 323 323 321 319 317 316 316 315 311 310 308 309 307 302 301 299 298 297 297 296 296 296 297 299 300 299 298 298 297
323 321 321 320 319 317 316 316 314 314 312 309 307 305 304 303 300 299 298 298 297 296 296 295 295 296 298 299 297 298 297 297
319 318 319 319 318 316 316 315 313 310 307 305 303 303 302 299 299 298 297 297 296 296 295 295 295 295 295 298 298 298 297 296
318 317 317 318 318 317 316 314 311 307 304 303 303 301 299 299 299 298 297 297 296 296 295 295 295 295 295 296 298 296 295 294
317 316 317 318 318 317 316 313 309 305 303 303 302 300 299 299 299 298 298 297 296 295 295 295 294 295 295 295 294 294 294 294
316 316 317 317 317 316 315 312 307 304 304 303 301 300 300 300 299 298 298 297 296 295 295 294 295 295 294 293 293 293 294 292
316 315 316 316 315 315 315 310 306 305 304 302 301 300 300 300 299 298 298 297 296 295 295 294 294 294 294 293 292 292 291 291
317 316 316 315 315 314 314 310 307 305 303 302 302 301 301 300 299 298 297 297 296 295 295 294 294 294 294 293 292 291 291 290
317 316 314 315 314 312 312 310 307 305 303 303 302 301 301 299 298 298 296 296 296 295 294 295 294 294 294 294 292 290 289 289
317 317 315 315 313 311 310 309 307 305 303 304 302 300 299 298 297 297 295 295 295 294 295 294 294 294 294 294 292 291 288 287
315 316 316 314 314 312 310 309 307 305 305 303 299 298 297 296 296 295 294 294 294 294 295 294 294 293 294 293 292 289 287 287
313 314 316 315 315 314 312 308 306 306 303 298 298 297 295 295 294 293 293 294 293 294 294 294 293 293 293 292 291 288 286 286

GFSFLT1_925_thetae_024.txt.gz
Theta_e
332 332 331 328 328 332 329 329 328 327 325 322 322 322 318 316 315 313 313 313 313 311 311 310 309 309 308 307 305 303 302 302
327 331 330 328 328 331 328 329 329 328 323 323 323 322 318 315 315 313 312 311 311 311 310 309 308 307 305 304 303 302 301 302
323 326 329 329 329 329 328 328 329 328 327 324 324 323 318 315 312 311 310 310 310 309 309 308 306 304 303 303 302 301 302 301
326 326 329 329 329 329 328 329 329 329 329 324 325 321 315 312 311 311 310 309 309 308 306 304 301 299 298 298 301 301 301 300
327 329 330 330 329 330 329 328 329 329 326 325 325 318 313 312 311 311 309 309 308 304 300 299 298 297 297 298 299 301 301 300
328 330 331 330 329 329 330 329 329 328 323 327 324 318 314 312 311 310 308 302 300 298 298 297 296 296 298 299 300 300 300 299
327 331 331 330 330 330 330 330 329 328 328 325 323 318 313 311 309 304 300 298 298 297 297 296 295 297 298 299 299 299 298 298
329 328 330 330 329 329 329 328 326 327 327 318 317 314 312 310 306 302 299 298 297 296 296 295 295 296 297 299 299 297 297 297
329 326 324 324 324 323 324 320 315 316 318 315 311 309 309 307 302 300 298 297 296 296 295 295 295 295 295 297 298 297 297 296
323 320 320 319 317 318 317 315 313 311 311 309 307 305 303 302 299 298 297 297 296 296 295 295 295 295 294 295 296 298 298 296
321 320 317 316 316 316 316 315 314 312 310 307 304 303 301 300 299 298 297 297 296 296 295 295 294 294 295 295 296 297 294 294
320 319 318 317 316 315 315 314 313 310 309 307 304 303 300 299 299 298 298 297 297 296 296 295 294 294 295 294 294 293 293 294
319 318 317 316 316 315 314 313 313 311 307 306 304 302 300 299 299 299 298 298 297 297 296 295 294 294 294 293 293 292 292 293
317 315 316 315 315 315 312 311 310 308 305 304 303 302 300 300 299 298 298 297 297 296 296 295 294 294 294 294 293 292 292 291
315 314 315 316 315 314 312 308 309 307 304 303 302 301 301 300 300 298 298 297 297 296 295 295 294 294 294 293 293 292 291 290
314 313 314 315 314 314 310 310 308 305 303 303 302 302 301 300 299 298 297 296 296 295 295 294 294 294 294 294 293 293 291 289
315 313 313 313 313 312 311 309 306 304 304 303 302 301 301 299 297 296 295 295 294 294 294 294 294 294 294 294 294 292 291 288
316 313 313 313 313 313 312 310 306 304 303 302 302 300 298 295 294 295 294 294 293 294 294 294 294 294 293 294 293 292 291 288
311 314 314 314 314 313 312 308 305 303 302 300 298 296 295 295 296 294 293 293 293 293 293 294 294 293 293 293 292 291 289 287

GFSFLT1_925_thetae_027.txt.gz
Theta_e
327 327 329 332 332 331 332 332 332 328 327 325 320 320 319 318 317 317 315 315 314 312 310 310 309 309 308 305 303 302 300 301
330 331 331 332 331 331 333 329 328 328 324 321 321 320 318 315 314 314 313 313 311 310 310 309 308 306 303 302 301 300 300 301
330 331 331 330 330 331 331 328 328 327 324 322 321 320 316 315 313 312 311 311 310 309 308 307 304 303 301 299 298 300 301 301
325 329 330 328 328 330 330 328 327 326 324 323 322 319 317 313 312 310 309 309 309 308 306 303 300 299 298 296 297 300 300 300
323 327 328 327 326 328 329 328 328 327 325 324 323 319 313 311 310 309 309 308 307 303 300 299 298 297 296 296 298 299 301 300
323 323 327 327 327 326 328 328 327 327 326 325 324 318 314 312 310 309 306 303 300 298 298 297 296 295 295 297 298 299 299 299
324 326 328 328 328 327 328 327 327 327 327 324 324 320 314 311 309 307 303 300 298 298 297 296 295 294 296 299 299 298 297 297
326 328 329 328 328 328 328 328 327 327 327 324 324 322 316 313 310 305 300 298 297 296 296 295 295 294 295 297 298 297 297 296
327 329 329 328 328 328 328 327 327 328 327 325 325 322 316 312 308 302 299 298 297 296 296 298 294 294 294 294 296 297 297 296
327 328 329 328 327 328 329 327 328 326 327 325 319 316 314 310 303 300 298 297 296 296 295 294 294 294 294 294 294 296 298 296
323 323 322 324 327 328 327 325 324 321 321 321 315 311 309 306 302 299 298 297 299 296 295 295 294 293 294 295 295 296 295 294
323 322 320 321 323 324 322 318 315 315 315 313 310 307 305 302 301 299 297 298 296 296 296 296 295 295 294 294 294 293 293 292
322 321 318 315 315 316 316 313 312 311 309 308 306 303 302 301 299 299 298 298 297 297 296 296 295 294 294 294 294 293 293 293
319 317 316 314 313 313 312 310 308 306 308 307 304 303 302 301 299 299 298 298 297 297 296 296 295 295 293 293 294 293 293 292
316 315 315 316 315 313 312 310 307 307 307 306 303 303 302 300 300 299 298 298 297 297 296 296 295 295 294 294 294 293 292 292
314 313 313 315 315 314 312 310 308 309 306 305 304 304 302 301 300 299 298 297 296 296 295 295 295 294 294 294 294 293 292 291
313 312 312 313 314 314 311 310 310 308 306 305 303 302 301 300 299 297 296 296 295 294 294 294 294 294 294 294 294 293 292 290
314 313 311 313 313 314 312 312 310 307 303 301 300 300 299 298 295 294 294 295 296 297 294 293 293 294 294 294 293 293 292 291
303 302 309 312 312 311 311 309 305 302 301 300 300 299 295 295 296 295 296 297 295 297 293 293 292 292 293 293 293 292 291 291

GFSFLT1_925_thetae_030.txt.gz
Theta_e
327 325 325 325 326 328 329 329 330 327 323 326 327 325 323 319 319 320 320 316 313 312 311 309 308 308 307 303 301 300 299 300
327 326 324 326 328 330 330 330 330 327 326 326 323 321 319 318 318 317 315 315 312 311 310 308 307 306 303 301 300 300 300 300
327 327 326 327 329 330 330 330 330 328 327 326 324 319 318 317 315 314 313 313 310 309 308 307 305 302 298 298 298 299 300 300
328 328 329 329 330 331 330 330 331 330 326 323 320 319 317 314 312 311 311 310 309 308 307 303 299 298 296 296 296 297 299 299
326 328 329 328 328 329 329 330 330 327 325 323 321 320 315 313 312 310 308 308 308 305 301 299 298 296 295 295 296 298 299 299
323 324 328 328 328 329 328 328 327 326 326 325 322 319 315 314 310 308 308 306 303 300 299 297 296 294 295 295 296 298 298 298
319 322 326 328 327 327 327 328 328 326 325 324 322 319 315 311 308 307 305 302 300 298 297 296 297 301 296 295 296 298 297 296
320 321 323 326 327 326 326 327 326 326 325 323 323 322 319 313 309 307 302 299 297 297 296 297 300 295 293 293 296 297 297 296
322 324 324 325 326 326 326 325 325 326 326 325 324 324 320 315 311 308 305 301 299 298 296 300 299 300 293 293 294 296 297 297
322 325 326 326 326 327 327 325 325 325 326 326 325 323 321 316 311 308 304 301 298 296 299 301 295 293 293 293 294 294 296 297
322 324 327 327 327 327 327 326 326 326 326 326 326 323 321 315 311 305 301 299 298 297 300 295 294 294 293 294 294 294 296 295
322 323 326 326 327 327 326 327 327 326 326 325 325 321 316 311 308 305 303 299 297 299 295 295 295 295 294 293 294 294 293 293
320 320 322 322 323 324 326 324 321 322 323 320 317 314 309 310 308 304 300 298 299 296 296 296 296 295 294 294 294 294 293 293
318 317 316 317 318 318 319 316 317 315 314 313 311 308 308 307 305 301 299 298 297 296 296 296 295 295 295 294 293 293 293 293
317 316 315 315 315 317 316 315 313 311 310 309 308 307 306 305 302 300 298 298 297 296 296 296 295 295 295 294 293 293 293 293
316 315 313 314 315 314 313 312 309 307 307 307 306 304 302 300 300 299 298 297 297 296 296 295 294 297 294 294 294 294 293 293
315 313 312 313 315 315 315 313 312 310 308 305 303 301 300 300 299 298 297 296 296 295 294 295 297 297 293 293 294 294 293 293
306 308 309 311 312 314 313 311 309 308 306 302 301 301 300 299 298 297 296 294 295 297 297 297 297 294 293 293 293 293 293 293
299 299 301 304 308 309 309 308 307 304 302 301 300 299 297 295 294 294 297 298 298 297 297 294 293 293 292 292 292 292 292 292

GFSFLT1_925_thetae_033.txt.gz
Theta_e
327 325 325 323 323 324 325 325 328 329 324 320 324 327 327 326 325 324 323 321 319 315 312 310 308 308 307 303 301 299 299 302
327 327 325 325 324 325 326 327 327 329 326 322 324 326 322 321 320 320 321 319 314 312 310 308 308 307 304 302 299 299 301 299
329 327 325 325 326 326 328 328 329 329 326 322 323 324 321 319 318 318 316 314 312 311 309 308 307 304 301 298 297 301 300 299
331 328 326 326 326 328 328 329 329 328 326 325 325 323 319 315 313 314 314 312 310 309 309 308 305 301 297 296 296 297 300 299
331 330 328 327 327 328 329 329 329 328 326 324 324 321 318 315 312 311 311 310 309 308 307 304 300 297 295 296 296 297 299 300
328 330 330 329 328 328 328 328 327 327 326 324 321 320 318 316 312 310 309 308 308 307 303 300 298 295 299 301 297 298 297 299
325 327 329 330 329 328 328 328 327 326 325 323 321 320 318 315 312 309 308 306 304 302 300 298 296 302 300 296 296 295 297 297
324 324 325 328 327 327 328 328 327 327 327 323 322 320 319 316 314 310 307 303 301 300 299 296 299 300 297 298 295 296 296 298
324 324 324 326 327 327 328 327 326 320 321 323 320 319 319 318 317 312 310 306 301 298 297 297 299 299 297 295 294 294 295 297
322 323 323 324 326 326 327 328 327 325 323 322 321 320 322 320 319 311 308 304 301 299 298 299 300 295 293 293 293 294 294 296
320 322 324 325 326 326 327 327 327 326 323 321 322 324 323 320 314 310 306 303 301 299 297 298 296 293 293 293 293 294 294 295
322 323 325 326 326 326 326 326 326 324 323 322 323 323 321 319 316 308 305 304 300 298 297 299 294 294 294 294 294 294 294 296
324 325 326 326 326 325 325 324 323 322 323 324 323 322 319 315 312 308 306 303 299 297 299 295 294 295 295 295 294 293 294 295
323 324 325 324 323 321 319 320 318 323 321 318 318 316 312 309 308 308 304 302 300 297 296 295 296 296 295 294 295 294 293 293
323 323 321 320 319 319 320 319 318 313 310 309 308 307 307 306 305 302 301 300 298 298 296 296 296 295 294 296 296 293 293 293
320 321 320 318 317 316 316 314 315 314 310 308 308 308 304 302 300 300 299 298 297 296 296 295 294 294 297 297 296 293 293 293
315 315 316 316 316 316 314 312 311 310 308 306 303 303 301 300 299 299 297 296 296 295 294 293 295 296 295 296 295 293 293 293
309 310 309 310 311 311 312 310 309 306 304 303 302 302 301 300 299 298 296 295 294 295 296 295 296 295 295 294 293 291 292 293
303 303 303 303 304 305 305 304 303 302 302 301 300 299 298 297 296 295 296 297 297 296 295 296 295 295 295 294 292 291 291 291